Presure
155 158 190 178 173 204 195 200 193 182 194 169 204 179 188 172 164 170 173 175 203 191 189 200 200 197 196 191 191 187 189 192 189 193 185 180 179 180 170 164 156 190 182 189 184 184 181
159 169 186 183 185 192 179 193 182 187 195 168 195 194 178 183 180 194 189 180 159 169 195 198 190 183 174 170 164 160 160 161 188 188 219 206 201 191 190 186 184 180 175 170 176 185 163
130 161 173 163 157 179 191 205 197 189 191 174 179 171 184 193 184 178 177 164 182 168 171 186 169 173 180 197 191 191 191 177 155 181 178 155 176 170 169 170 163 167 168 174 167 170 162
172 150 149 158 150 162 184 178 196 186 188 202 222 204 183 210 168 159 179 172 176 179 173 181 165 177 166 169 176 182 168 172 169 149 167 168 170 146 160 155 146 156 157 162 159 160 163
140 151 167 150 166 155 164 183 178 213 196 176 190 190 175 239 214 191 179 173 173 175 169 176 169 157 162 154 172 161 171 174 156 169 168 150 160 145 140 154 152 134 166 148 149 158 164
141 138 171 165 172 149 153 168 196 213 202 172 183 201 153 159 232 210 182 195 184 183 174 154 161 168 168 161 151 167 157 162 162 159 160 152 156 157 147 154 151 159 144 146 149 151 163
145 146 153 177 176 169 166 156 176 179 200 193 178 145 153 185 228 224 199 179 177 177 181 178 157 153 158 169 161 161 151 149 165 159 154 160 149 148 154 159 143 159 155 160 159 160 157
170 172 140 152 136 159 189 164 172 200 200 193 179 173 158 197 161 175 223 188 166 173 167 174 172 173 165 160 161 162 160 164 172 175 162 153 150 159 167 166 158 160 163 156 157 159 163
162 143 156 161 168 171 172 152 197 197 185 184 175 173 198 194 184 168 174 186 194 191 192 171 190 177 173 177 165 160 165 160 169 169 163 177 153 163 161 158 157 164 159 159 164 158 160
158 163 165 157 161 157 185 159 189 179 184 173 179 162 196 177 189 183 172 178 155 174 172 184 189 194 203 212 160 177 176 179 176 167 174 154 151 150 150 149 152 164 170 169 171 174 172
161 165 161 164 170 167 174 187 209 181 182 186 176 176 167 178 167 164 161 166 172 169 168 160 162 167 174 176 171 159 168 162 162 166 162 163 163 152 167 160 161 162 168 172 173 150 150
159 154 165 145 176 188 158 192 205 188 197 184 172 163 163 165 140 146 147 157 157 158 171 168 160 158 154 157 163 150 164 164 161 166 164 166 168 164 167 154 154 158 149 152 162 167 168
156 143 169 192 185 165 182 194 199 201 200 169 160 164 163 153 147 154 159 153 155 156 158 148 167 167 164 155 156 155 150 155 156 157 156 158 156 158 167 169 172 173 168 165 163 165 166
152 163 171 188 172 163 187 192 187 146 167 152 149 149 155 158 150 153 151 149 148 163 164 161 162 159 162 159 159 159 166 171 167 168 169 170 155 173 167 163 143 152 164 166 171 170 172
160 172 177 163 184 175 175 167 172 146 145 143 152 147 168 173 162 152 151 173 183 169 173 168 165 162 166 165 176 169 171 176 176 167 181 149 174 177 171 165 172 165 171 168 171 172 171
163 168 190 174 175 186 167 151 169 145 152 143 153 148 148 149 151 159 168 172 182 171 182 182 177 191 190 177 174 175 169 176 176 183 168 177 186 184 172 169 167 169 170 170 175 180 173
172 170 189 153 154 149 161 167 163 171 181 169 175 178 168 181 159 160 167 173 172 178 172 188 181 195 189 202 203 203 190 193 181 186 183 178 187 197 188 186 175 174 180 183 180 184 180
187 184 152 149 167 176 173 164 172 179 175 187 178 168 171 176 166 201 205 212 211 209 235 188 214 204 263 235 197 206 195 205 231 238 216 233 234 199 196 208 200 215 219 211 194 203 197
153 156 159 169 175 171 175 180 161 169 190 160 161 175 172 201 211 204 192 241 243 217 251 298 307 283 334 308 249 292 296 295 286 256 209 253 244 245 254 245 220 241 220 211 236 220 207
182 156 181 178 180 165 147 152 169 186 183 166 194 185 209 206 217 215 199 205 255 237 314 485 433 498 482 493 479 456 388 315 301 291 283 284 282 275 276 265 257 270 240 241 254 250 220
179 156 197 178 167 167 183 182 173 158 193 186 189 206 221 212 193 264 422 530 512 505 480 466 474 451 439 437 441 444 449 431 423 425 419 404 377 378 353 358 350 298 287 277 269 266 269
182 182 169 161 199 183 180 181 197 194 185 170 212 198 220 228 235 266 520 511 360 345 334 321 315 424 427 418 415 431 437 450 419 398 406 393 392 358 365 362 350 346 344 340 341 337 338
206 170 183 178 169 170 174 204 202 187 193 215 222 185 222 236 303 378 377 351 330 317 306 316 313 416 381 387 391 397 399 401 404 397 390 387 384 394 369 352 344 342 327 322 318 320 320
170 192 173 169 182 172 194 192 202 213 207 194 220 218 258 297 290 370 344 326 310 306 307 310 325 384 384 386 382 393 392 384 394 381 366 365 360 370 366 363 342 331 330 320 311 307 305
190 200 193 169 208 199 202 211 197 205 206 226 215 231 252 347 310 341 319 308 301 302 315 310 297 379 384 404 370 375 374 374 372 370 365 350 345 342 338 341 347 342 330 329 325 316 312
174 198 186 195 164 204 200 210 203 222 206 227 256 249 370 352 337 320 303 296 329 350 345 318 308 377 381 381 363 358 347 334 326 329 328 333 332 331 340 350 356 342 365 364 341 332 326
169 205 155 182 198 212 202 212 220 217 221 226 242 376 347 337 314 301 292 294 307 338 383 357 356 321 385 374 360 343 334 327 326 316 318 318 322 325 322 325 342 344 334 328 334 350 347
176 195 190 208 192 216 205 208 221 214 229 256 350 350 333 313 294 289 293 318 319 324 334 318 343 308 303 373 353 340 335 319 325 322 317 317 316 317 327 320 325 333 336 327 331 333 328
210 181 198 212 215 193 207 231 239 219 248 365 346 333 311 292 282 290 302 302 313 314 313 357 342 326 292 339 331 333 333 329 323 318 327 327 310 313 324 324 336 334 328 326 330 324 326
Wind_Speed
15 20 30 24 21 32 26 29 23 18 25 25 26 22 22 31 34 32 33 34 36 37 39 41 42 43 44 46 46 51 49 49 49 48 50 51 53 53 58 62 63 46 57 46 48 51 49
21 33 40 33 35 28 23 27 22 26 29 27 25 26 25 26 28 27 27 33 45 42 33 36 36 39 43 47 49 54 54 53 44 45 34 38 40 40 39 41 45 47 53 56 55 52 53
33 26 32 28 26 36 34 34 29 23 24 24 25 31 25 31 28 31 33 42 32 39 37 32 40 34 37 37 38 38 36 45 60 39 40 61 43 49 50 51 58 57 53 55 60 60 53
41 24 23 30 25 36 38 35 36 30 26 33 33 29 26 38 38 39 32 37 37 35 37 34 43 36 46 43 37 37 44 39 44 66 50 51 51 65 56 60 66 62 58 58 63 61 58
23 28 39 27 45 30 42 45 37 43 32 27 29 28 29 35 42 36 37 36 36 38 39 37 43 52 50 58 43 50 43 43 56 49 51 68 60 62 71 67 68 65 57 68 67 65 64
22 24 48 47 48 29 31 47 48 45 37 32 30 42 35 37 36 43 35 40 38 42 42 53 47 47 49 53 60 47 56 50 51 56 57 66 60 58 73 73 68 67 71 72 68 68 71
30 30 44 49 49 51 53 43 51 43 39 33 32 36 35 32 31 40 41 40 42 41 45 44 56 59 55 53 57 57 64 65 57 60 64 59 66 66 73 74 71 73 71 75 76 75 73
49 52 36 45 33 50 49 50 50 46 40 33 32 35 38 38 38 40 34 41 45 44 51 49 50 53 58 59 61 62 65 64 64 68 70 68 69 74 73 73 73 74 77 77 78 80 77
51 38 50 54 56 55 53 44 43 42 38 34 38 38 41 36 38 43 44 43 44 47 50 60 62 60 64 64 65 67 69 69 69 71 72 69 75 75 79 79 80 83 82 86 84 80 78
51 55 52 53 57 51 51 57 43 41 37 36 34 47 39 40 38 42 48 49 54 51 51 49 55 61 63 65 69 69 71 72 74 76 77 77 81 77 77 79 72 84 88 87 90 91 89
56 56 56 61 61 59 54 50 59 42 39 41 30 36 45 39 47 50 51 51 54 58 57 61 65 65 65 68 73 77 78 79 80 82 84 84 86 84 89 91 89 90 93 93 95 62 56
58 54 61 43 63 63 56 54 58 40 42 40 38 42 44 49 58 60 65 66 67 69 63 67 72 72 77 78 78 74 84 86 90 89 92 91 92 92 94 80 72 81 71 78 92 98 84
54 40 63 64 64 54 59 54 52 49 46 49 56 48 49 62 68 69 69 75 77 79 80 72 80 81 85 86 87 88 80 92 98 94 95 97 89 90 94 103 108 106 105 100 88 99 95
56 68 71 66 62 57 60 50 44 53 50 63 66 68 65 69 74 77 80 80 80 88 91 90 90 95 97 93 91 92 99 104 105 105 109 108 87 109 103 103 70 71 101 103 117 107 109
68 75 72 60 64 60 56 54 51 64 65 69 69 82 73 73 80 85 86 81 87 95 100 100 101 88 102 100 107 104 111 111 116 109 118 78 113 115 115 105 115 105 112 116 109 113 113
71 71 75 62 58 59 54 56 57 71 70 75 72 77 90 92 94 99 97 98 100 104 107 103 100 111 116 119 106 105 110 115 119 126 114 120 125 121 105 113 112 115 122 121 122 128 123
71 70 70 59 63 67 66 67 67 73 69 77 79 80 84 89 96 101 105 111 113 114 114 121 118 120 118 123 126 125 125 119 119 125 127 125 127 131 134 130 129 128 133 135 135 136 136
76 77 58 66 66 66 68 72 75 77 79 87 85 93 97 102 104 111 114 116 122 122 123 128 131 131 123 129 136 134 135 132 132 124 132 130 134 136 139 138 135 134 132 134 139 136 138
58 61 67 72 73 73 77 83 83 82 96 94 98 101 104 114 118 119 120 128 126 124 124 129 128 128 124 121 129 124 122 119 121 126 121 128 130 133 130 133 133 132 134 133 134 138 135
72 65 73 76 73 75 80 90 89 96 99 100 105 111 115 118 121 126 128 131 130 130 121 53 78 35 42 36 41 57 90 123 124 126 124 128 129 131 133 131 132 129 132 128 129 133 134
76 72 80 71 77 82 93 92 95 98 106 110 115 119 121 126 120 140 83 41 41 36 43 42 32 43 48 49 46 45 45 57 62 60 64 65 78 79 96 93 95 124 129 127 129 128 129
77 77 71 77 91 90 95 103 110 105 113 110 118 125 124 127 127 135 36 27 77 76 80 78 79 42 39 41 47 42 37 35 48 57 60 64 65 78 82 78 79 79 77 85 86 85 86
88 72 88 90 91 94 102 110 108 113 120 117 128 119 134 135 139 90 74 74 72 72 71 74 74 29 46 50 45 40 37 29 31 36 40 43 51 60 73 75 76 74 74 77 83 85 84
76 93 82 91 99 101 108 109 116 124 120 118 128 132 144 143 129 74 73 70 68 68 67 69 64 44 43 43 40 32 27 25 26 30 33 31 38 43 50 53 67 72 75 75 80 85 86
92 104 104 94 110 110 111 120 118 123 125 128 130 133 138 95 106 75 73 69 68 67 67 67 69 37 38 32 35 21 18 14 14 17 23 30 33 36 44 48 53 60 69 72 76 82 85
81 108 95 106 104 113 116 124 124 130 127 135 149 141 76 77 76 73 71 71 66 58 55 61 61 34 30 21 21 8 5 11 13 14 19 25 31 37 37 33 33 41 38 45 60 67 73
89 114 94 109 117 121 119 131 132 135 133 134 130 71 80 75 74 73 73 72 68 58 39 42 35 45 24 22 14 9 12 16 17 26 25 30 33 32 31 35 28 33 40 46 50 43 49
96 107 106 124 112 129 127 131 134 132 138 151 95 80 79 77 79 78 78 71 65 59 51 51 32 43 40 14 9 12 10 22 23 27 28 33 34 33 33 34 35 32 35 41 40 42 46
121 103 118 127 131 120 133 144 147 135 150 79 81 82 81 83 85 82 78 76 67 60 55 29 32 32 39 18 20 20 18 20 21 22 26 29 30 31 32 30 27 27 32 35 35 41 39
Wind_Direction
345 357 6 359 348 2 356 352 338 305 331 268 316 270 275 263 260 259 258 258 266 264 263 264 264 266 268 267 267 268 270 271 272 272 274 275 276 278 277 276 276 277 282 283 284 285 289
352 356 356 2 2 352 340 352 327 330 327 293 313 300 269 272 264 275 268 267 262 262 269 272 272 270 268 267 266 265 266 266 271 272 263 267 271 273 274 275 279 279 283 285 289 291 286
292 354 351 349 342 352 353 348 344 330 331 279 283 284 288 291 272 263 261 265 267 263 266 281 261 270 275 275 273 276 273 271 265 274 274 269 276 276 276 279 278 280 286 289 287 289 286
340 337 328 343 311 343 340 339 338 317 316 332 315 300 299 280 267 270 267 265 268 269 266 276 262 272 266 267 276 275 269 274 271 265 272 272 273 274 276 276 276 280 281 284 282 286 287
296 337 339 329 339 333 338 333 330 333 322 306 314 299 294 283 265 268 264 266 270 272 262 271 265 260 264 265 270 265 270 272 268 270 271 271 273 276 277 275 276 280 284 280 281 284 288
309 295 333 332 330 323 320 331 339 333 328 297 304 324 287 285 268 261 266 265 269 271 269 270 263 267 267 266 266 268 260 265 265 266 269 270 273 275 273 274 278 278 279 280 279 283 286
322 330 330 329 331 328 329 324 321 324 328 318 297 286 288 299 304 265 267 271 271 272 270 267 264 264 264 272 269 270 266 266 270 267 267 270 271 272 274 277 276 278 279 278 280 282 282
324 326 309 323 300 327 321 321 326 332 324 319 304 305 293 305 284 284 281 273 273 271 276 271 271 270 268 268 270 271 270 272 273 270 267 268 272 269 270 270 274 276 274 278 279 279 280
317 315 317 320 323 324 321 314 326 327 316 314 306 302 308 304 288 289 285 282 271 273 272 275 272 269 267 267 268 270 269 270 269 270 268 266 271 267 270 273 275 274 277 277 277 282 282
314 315 318 321 324 321 316 317 323 311 313 302 306 292 304 302 295 289 289 284 284 278 275 271 271 271 273 272 271 267 269 271 269 267 267 273 276 279 280 282 285 274 273 274 275 275 276
314 317 317 320 321 322 317 315 321 304 304 304 300 304 294 289 287 284 282 280 276 275 273 271 270 272 274 275 273 276 272 273 273 270 271 268 269 281 268 272 276 273 270 271 271 288 293
311 314 319 319 317 318 321 318 320 307 317 300 293 290 291 290 293 291 291 285 283 281 268 265 271 273 281 277 271 284 270 270 271 270 269 269 267 268 268 279 290 283 286 289 280 276 275
314 317 316 320 315 316 318 320 326 324 319 296 295 285 282 284 292 287 282 287 285 284 283 287 268 265 266 282 281 285 292 288 286 288 287 285 285 286 275 271 268 270 275 282 279 284 282
316 315 318 318 317 316 317 314 315 298 297 297 296 296 288 282 290 286 287 291 293 275 275 277 277 281 276 282 286 287 276 266 269 273 267 272 273 268 278 285 272 285 286 288 275 283 280
314 316 317 318 317 313 310 299 301 296 295 296 292 297 290 289 282 289 291 280 275 276 268 272 277 286 274 278 267 278 277 271 264 281 263 282 273 271 271 283 275 288 284 280 289 283 284
312 313 314 313 311 312 297 297 295 294 289 296 298 296 295 296 295 293 285 285 283 278 268 280 284 268 262 273 287 280 295 281 270 264 290 278 271 269 263 281 283 281 284 283 279 276 282
310 309 311 302 300 300 295 298 287 305 308 309 299 300 283 289 290 287 281 277 283 284 292 286 288 282 278 267 266 267 271 272 279 268 274 280 278 263 269 266 273 275 273 272 275 273 274
311 310 300 298 302 309 306 289 303 309 304 309 298 295 283 284 286 288 288 286 282 280 290 285 281 278 281 280 277 277 278 276 271 271 269 269 269 270 269 267 268 267 267 268 269 268 270
307 302 300 306 313 308 312 314 290 295 311 286 288 289 286 300 298 288 287 299 294 286 293 294 289 285 278 276 277 275 271 268 267 264 274 261 263 263 261 261 267 262 264 267 263 266 268
312 300 313 315 318 301 308 289 298 308 300 296 299 292 303 298 300 295 291 292 299 296 296 293 289 285 285 287 274 274 269 268 267 266 265 265 264 262 263 262 263 263 263 264 261 262 266
312 302 316 318 306 302 313 309 297 295 306 295 296 304 311 300 301 315 304 298 301 296 294 295 294 289 290 289 282 277 268 266 266 259 258 254 264 263 266 264 264 264 264 261 261 262 262
320 319 310 298 321 314 307 305 309 304 297 300 307 296 305 306 306 311 313 298 305 303 301 299 296 294 297 291 293 297 288 274 264 266 264 260 251 258 261 260 260 261 261 264 265 264 265
315 306 315 313 301 297 299 315 312 299 300 309 313 306 306 309 321 316 312 310 306 304 304 304 302 285 294 296 297 298 296 286 272 263 266 263 261 257 254 257 258 257 257 259 263 264 261
309 318 302 297 311 297 311 307 310 314 313 308 311 306 322 321 320 317 313 310 309 309 309 308 305 299 300 299 299 306 296 286 274 260 263 263 263 265 262 261 255 256 255 253 253 257 258
319 324 318 294 318 314 315 317 305 307 316 315 307 314 320 319 319 317 315 314 313 312 313 312 311 302 301 294 299 315 303 297 274 256 239 244 259 262 261 259 258 254 256 256 253 253 255
296 321 308 317 302 316 311 316 310 318 314 317 326 319 319 320 318 317 317 316 321 322 319 313 311 309 315 308 309 316 314 285 281 277 263 258 256 261 265 270 268 261 253 254 257 257 259
295 320 309 306 314 320 314 319 317 318 315 315 319 319 319 320 319 319 318 319 319 324 322 317 315 312 303 309 279 300 265 274 260 268 266 273 270 268 268 272 264 257 260 258 258 257 254
302 314 309 319 309 321 314 316 318 315 318 325 321 319 319 321 321 320 320 324 324 324 323 318 317 312 312 327 284 271 260 272 258 261 264 269 276 282 282 271 270 264 255 258 260 258 255
320 305 315 319 321 312 316 322 321 316 322 320 319 319 320 322 320 320 323 322 324 324 321 315 316 314 309 312 305 299 291 287 281 285 276 272 275 278 280 274 273 259 255 258 253 259 261